Location: Sternwarte_Laufen
(47.9344°N, 12.9346°E)
Time: 04:34:45
(UTC+02:00)

ISS - Pass Details

Date: 11 July 2025
Orbit: 413 x 417 km, 51.6° (Epoch: 12 July)

Event Time Altitude Azimuth Distance (km) Brightness Sun altitude
Rises 03:36:57 0° 289° (WNW) 2,359 -0.1 -13.0°
Reaches altitude 10° 03:39:15 10° 276° (W) 1,493 -1.2 -12.8°
Maximum altitude 03:42:06 26° 218° (SW) 860 -2.8 -12.5°
Drops below altitude 10° 03:44:56 10° 160° (SSE) 1,487 -1.3 -12.2°
Sets 03:47:13 0° 147° (SSE) 2,346 -0.2 -12.0°
